Location: Unspecified
(45.3712°N, 0.6436°E)
Time: 22:11:25
(UTC+02:00)

ISS - Pass Details

Date: 22 July 2018
Orbit: 402 x 408 km, 51.6° (Epoch: 17 July)

Event Time Altitude Azimuth Distance (km) Brightness Sun altitude
Rises 02:04:27 0° 292° (WNW) 2,327 0.3 -24.3°
Reaches altitude 10° 02:06:44 10° 305° (NW) 1,467 -0.6 -24.3°
Maximum altitude 02:09:36 27° 6° (N) 816 -1.6 -24.3°
Drops below altitude 10° 02:12:29 10° 67° (ENE) 1,468 -0.7 -24.3°
Sets 02:14:46 0° 80° (E) 2,329 0.2 -24.3°
